Weather History for North Las Vegas, NV

Change the Weather History Date:

Monday, July 8, 2013

  Actual Average Record
Temperature  
Mean Temperature 94 °F -  
Max Temperature 107 °F 101 °F 114 °F (1951)
Min Temperature 82 °F 75 °F 51 °F (1955)
Cooling Degree Days 30    
Growing Degree Days 44 (Base 50)    
Moisture  
Dew Point 31 °F    
Average Humidity 13    
Maximum Humidity 27    
Minimum Humidity 4    
Precipitation  
Precipitation 0.00 in - - ()
Sea Level Pressure  
Sea Level Pressure 29.83 in    
Wind  
Wind Speed 5 mph (West)    
Max Wind Speed 16 mph    
Max Gust Speed 24 mph    
Visibility 10 miles    
Events      
Averages and records for this station are not official NWS values.
T = Trace of Precipitation, MM = Missing Value Source: NWS Daily Summary

Daily Weather History Graph

Daily Weather History Graph

Search for Another Location

Airport:

Trip Planner

Search our weather history database for the weather conditions in past years. The results will help you decide how hot, cold, wet, or windy it might be!

Date:

Astronomy

Jul. 08, 2013 Rise Set
Actual Time 5:30 AM PDT 8:00 PM PDT
Civil Twilight 5:00 AM PDT 8:30 PM PDT
Nautical Twilight 4:23 AM PDT 9:07 PM PDT
Astronomical Twilight 3:42 AM PDT 9:48 PM PDT
Moon 6:01 AM PDT (7/8) 8:09 PM PDT (7/8)
Length of Visible Light 15h 29m
Length of Day
14h 29m
New Moon, 0% of the Moon is Illuminated
Jul 8
New Moon
Jul 15
First Quarter
Jul 22
Full
Jul 29
Last Quarter
Aug 6
New

Hourly Weather History & Observations

Time (PDT) Temp. Dew Point Humidity Pressure Visibility Wind Dir Wind Speed Gust Speed Precip Events Conditions
12:53 AM 88.0 °F 46.0 °F 23% 29.77 in 10.0 mi Calm Calm - N/A   Clear
1:53 AM 84.9 °F 46.9 °F 27% 29.78 in 10.0 mi WNW 5.8 mph - N/A   Clear
2:53 AM 82.9 °F 45.0 °F 26% 29.79 in 10.0 mi Calm Calm - N/A   Clear
3:53 AM 84.0 °F 43.0 °F 24% 29.79 in 10.0 mi North 4.6 mph - N/A   Clear
4:53 AM 82.0 °F 45.0 °F 27% 29.81 in 10.0 mi WNW 6.9 mph - N/A   Clear
5:53 AM 82.0 °F 42.1 °F 24% 29.82 in 10.0 mi NW 6.9 mph - N/A   Clear
6:53 AM 82.9 °F 43.0 °F 24% 29.85 in 10.0 mi South 4.6 mph - N/A   Clear
7:53 AM 88.0 °F 46.9 °F 24% 29.87 in 10.0 mi NNE 4.6 mph - N/A   Clear
8:53 AM 91.9 °F 44.1 °F 19% 29.88 in 10.0 mi ENE 3.5 mph - N/A   Clear
9:53 AM 95.0 °F 43.0 °F 17% 29.88 in 10.0 mi SE 5.8 mph - N/A   Clear
10:53 AM 99.0 °F 37.9 °F 12% 29.88 in 10.0 mi Variable 6.9 mph - N/A   Clear
11:53 AM 100.0 °F 32.0 °F 9% 29.87 in 10.0 mi Calm Calm - N/A   Clear
12:53 PM 104.0 °F 21.0 °F 5% 29.85 in 10.0 mi WSW 12.7 mph 18.4 mph N/A   Clear
1:53 PM 104.0 °F 19.9 °F 5% 29.85 in 10.0 mi South 11.5 mph - N/A   Clear
2:53 PM 105.1 °F 19.9 °F 5% 29.83 in 10.0 mi SSW 5.8 mph - N/A   Clear
3:53 PM 107.1 °F 19.9 °F 5% 29.81 in 10.0 mi West 11.5 mph 23.0 mph N/A   Clear
4:53 PM 107.1 °F 19.0 °F 4% 29.80 in 10.0 mi WSW 16.1 mph 19.6 mph N/A   Clear
5:53 PM 106.0 °F 17.1 °F 4% 29.79 in 10.0 mi West 12.7 mph 24.2 mph N/A   Clear
6:53 PM 104.0 °F 16.0 °F 4% 29.80 in 10.0 mi West 13.8 mph 23.0 mph N/A   Clear
7:53 PM 100.9 °F 19.0 °F 5% 29.81 in 10.0 mi West 9.2 mph - N/A   Clear
8:53 PM 100.0 °F 19.0 °F 5% 29.83 in 10.0 mi WSW 8.1 mph - N/A   Partly Cloudy
9:53 PM 97.0 °F 21.0 °F 6% 29.84 in 10.0 mi WSW 8.1 mph - N/A   Mostly Cloudy
10:53 PM 93.9 °F 23.0 °F 8% 29.85 in 10.0 mi West 5.8 mph - N/A   Scattered Clouds
11:53 PM 89.1 °F 25.0 °F 10% 29.87 in 10.0 mi NNW 5.8 mph - N/A   Partly Cloudy